Regional Weather Roundup
Issued by NWS

Home | Current Version | Previous Version | Graphics & Text | Print | Product List | Glossary On
Versions: 1 2 3 4 5 6 7 8 9 10 11 12 13 14 15 16 17 18 19 20 21 22 23 24 25 26 27 28 29 30 31 32 33 34 35 36 37 38 39 40 41 42 43 44 45 46 47 48 49 50
000
ASUS44 KMEG 300510
RWRTN
TENNESSEE HOURLY STATE WEATHER ROUNDUP
NATIONAL WEATHER SERVICE MEMPHIS TN
1200 AM CDT MON MAY 30 2016

TNZ002-004-019-021-049-052-054-088>092-300600-
WEST TENNESSEE

CITY           SKY/WX    TMP DP  RH WIND       PRES   REMARKS
MEMPHIS INTL   CLOUDY    76  69  79 CALM      30.06S
NWS MEMPHIS      N/A     74 N/A N/A MISG        N/A
JACKSON        MOCLDY    71  69  93 CALM      30.05S
DYERSBURG      CLEAR     72  66  83 CALM      30.06R
UNION CITY     CLEAR     73  68  83 CALM      30.04S
PARIS          CLEAR     66  64  94 CALM      30.06S
LEXINGTON      CLEAR     70  70 100 CALM      30.04S
$$

TNZ008-025-027-028-033-062-065-066-300600-
NORTH MIDDLE TENNESSEE

CITY           SKY/WX    TMP DP  RH WIND       PRES   REMARKS
NASHVILLE      PTCLDY    75  66  73 NW3       30.04F
CLARKSVILLE    MOCLDY    71  66  84 CALM      30.04S
SMYRNA         CLEAR     70  67  90 CALM      30.04F
COOKEVILLE     CLEAR     66  66 100 CALM      30.05S
CROSSVILLE     CLEAR     65  62  90 CALM      30.10F
$$

TNZ061-075-076-078-094-096-097-300600-
SOUTH MIDDLE TENNESSEE

CITY           SKY/WX    TMP DP  RH WIND       PRES   REMARKS
FAYETTEVILLE   CLEAR     72  64  78 CALM      30.06S HAZE
TULLAHOMA      CLEAR     66  66 100 CALM      30.07F
WINCHESTER     CLEAR     68  64  88 CALM      30.06F
MCMINNVILLE    PTCLDY    72  70  94 CALM      30.06F
COLUMBIA       CLEAR    N/A N/A N/A CALM      30.04S
SHELBYVILLE    CLEAR     70  66  88 E3        30.06S
$$

TNZ017-018-042-046-047-300600-
NORTHEAST TENNESSEE

CITY           SKY/WX    TMP DP  RH WIND       PRES   REMARKS
TRI CITIES     CLEAR     60  57  89 CALM      30.09F
$$

TNZ012-013-036-069-073-074-300600-
CENTRAL EAST TENNESSEE

CITY           SKY/WX    TMP DP  RH WIND       PRES   REMARKS
KNOXVILLE      PTCLDY    67  65  93 CALM      30.05S FOG
OAK RIDGE      CLEAR     68  65  90 CALM      30.07F
GATLINBURG     CLEAR     64  63  94 CALM      30.06S
$$

TNZ083-085-099-300600-
SOUTHEAST TENNESSEE

CITY           SKY/WX    TMP DP  RH WIND       PRES   REMARKS
CHATTANOOGA    CLEAR     72  64  76 CALM      30.03F
$$

SKY/WX REPORTED AS FAIR MEANS FEW OR NO CLOUDS BELOW
12 THOUSAND FEET.





USA.gov is the U.S. government's official web portal to all federal, state and local government web resources and services.